Location: Newark
(51.0967°N, 24.7917°E)
Time: 07:29:49
(UTC+00:00)

STARLINK-1285 - Visible Passes

Search period start: 11 August 2020 00:00
Search period end: 21 August 2020 00:00
Orbit: 549 x 550 km, 53.0° (Epoch: 11 August)

Date Brightness Start Highest point End Pass type
(mag) Time Alt. Az. Time Alt. Az. Time Alt. Az.
11 Aug 3.9 01:10:52 13° W 01:14:32 67° N 01:18:41 10° ENE visible
11 Aug 3.6 23:29:42 70° ESE 23:29:42 70° ESE 23:33:31 10° ENE visible
12 Aug 3.9 01:05:20 12° W 01:09:04 66° N 01:13:13 10° E visible
12 Aug 3.6 23:24:09 76° E 23:24:09 76° E 23:28:01 10° ENE visible
13 Aug 3.9 00:59:47 12° W 01:03:37 66° N 01:07:45 10° E visible
13 Aug 3.6 23:18:38 76° NE 23:18:38 76° NE 23:22:31 10° ENE visible
14 Aug 3.9 00:54:16 12° WNW 00:58:08 68° N 01:02:17 10° E visible
14 Aug 3.7 23:13:09 72° NNE 23:13:09 72° NNE 23:17:01 10° ENE visible
15 Aug 3.8 00:48:48 12° WNW 00:52:40 71° N 00:56:49 10° E visible
15 Aug 3.8 02:28:10 10° WNW 02:32:14 53° SSW 02:36:16 10° SE visible
15 Aug 3.9 23:07:45 66° NNE 23:07:45 66° NNE 23:11:32 10° ENE visible
16 Aug 3.7 00:43:24 12° WNW 00:47:11 76° NNE 00:51:21 10° E visible
16 Aug 4.0 02:22:42 10° WNW 02:26:40 44° SSW 02:30:36 10° SE visible
16 Aug 4.1 23:02:31 58° NE 23:02:31 58° NE 23:06:03 10° ENE visible
17 Aug 3.6 00:38:10 14° WNW 00:41:42 83° NNE 00:45:52 10° ESE visible
17 Aug 4.2 02:17:16 10° WNW 02:21:05 36° SW 02:24:53 10° SSE visible
17 Aug 4.5 22:57:35 44° ENE 22:57:35 44° ENE 23:00:35 10° E visible
18 Aug 3.5 00:33:17 19° WNW 00:36:12 88° SSW 00:40:22 10° ESE visible
18 Aug 4.5 02:11:52 10° W 02:15:28 29° SW 02:19:04 10° SSE visible
18 Aug 5.3 19:28:30 10° SSW 19:29:53 18° S 19:29:53 18° S visible
18 Aug6.821:17:36ENE21:17:36ENE21:05:46WSWvisible
18 Aug 5.4 22:53:21 24° ENE 22:53:21 24° ENE 22:55:07 10° E visible
19 Aug 3.4 00:29:07 37° WNW 00:30:42 78° SSW 00:34:50 10° ESE visible
19 Aug 4.7 02:06:31 10° W 02:09:51 23° SW 02:13:09 10° SSE visible
19 Aug 4.2 19:22:39 10° SSW 19:26:23 33° SE 19:27:26 29° ESE visible
19 Aug 5.3 21:01:35 10° WSW 21:03:13 23° WSW 21:03:13 23° WSW visible
20 Aug 4.1 00:26:13 46° SE 00:26:13 46° SE 00:29:17 10° ESE visible
20 Aug 5.0 02:02:05 13° W 02:04:12 19° SW 02:07:07 10° S visible
20 Aug 4.0 19:16:54 10° SW 19:20:48 41° SSE 19:23:38 17° E visible
20 Aug 4.1 20:56:05 10° W 20:59:21 53° W 20:59:21 53° W visible
